Notices

What's New in latest Release from April 7th, 2021:

- Updated Glossary, including Speed of Maximum Gust, and Total Hourly Precipitation

- Updated national and regional climate services offices contacts and prices information

- Addition of station inventory lists for 1981-2010, 1971-2000, and 1961-1990 Normals.

If you haven't already, please take our survey and provide feedback about our website: https://eccc.sondage-survey.ca/f/LanguageSelection.aspx?s=442ca660-fcf1-47c0-95a9-59707d6fd709

Hourly Data Report for April 19, 2021

WIARTON A
ONTARIO
Current Station Operator: NAVCAN

44°44'39.000" N
81°06'31.000" W
221.90 m
6119499
71633
YVV

Download Data

Hourly Data (April 2021)
Hourly Data Report for April 19, 2021
TIME
LST
Temp Definition
°C
Dew Point Definition
°C
Rel Hum Definition
%
Precip. Amount Definition
mm

Wind Dir Definition
10's deg

Wind Spd Definition
km/h
Visibility Definition
km
Stn Press Definition
kPa
Hmdx Definition


Wind Chill Definition


Weather Definition


00:00 -0.3 -0.8 96   15 8 24.1 98.30   -3 LegendNANA
01:00 -0.5 -0.9 97   16 8 24.1 98.28   -3 Clear
02:00 0.7 -1.1 88   17 8 24.1 98.26     LegendNANA
03:00 -0.5 -1.4 94   14 9 24.1 98.23   -4 LegendNANA
04:00 -0.3 -1.0 95   13 8 24.1 98.20   -3 Clear
05:00 -0.2 -1.0 94   13 15 24.1 98.12   -5 LegendNANA
06:00 0.7 -0.7 90   12 11 24.1 98.11     LegendNANA
07:00 4.5 0.7 76   13 12 24.1 98.09     Mainly Clear
08:00 7.0 1.5 68   18 8 24.1 98.07     LegendNANA
09:00 10.0 1.2 54   19 10 24.1 97.99     LegendNANA
10:00 13.6 1.3 43   19 25 24.1 97.93     Cloudy
11:00 14.1 1.8 43   19 27 24.1 97.87     LegendNANA
12:00 15.8 -0.1 34   19 32 24.1 97.76     LegendNANA
13:00 14.7 -0.9 34   24 32 24.1 97.75     Cloudy
14:00 9.4 3.1 64   27 16 16.1 97.82     LegendNANA
15:00 7.5 4.8 83   26 14 12.9 97.88     Rain
16:00 6.2 5.5 95   23 15 4.8 97.93     Rain,Fog
17:00 6.3 5.6 95   24 17 8.1 97.95     Rain,Fog
18:00 6.0 5.3 95   26 9 9.7 97.99     Fog
19:00 4.5 2.0 84   30 14 12.9 98.05     Cloudy
20:00 3.8 1.5 85   29 10 16.1 98.11     LegendNANA
21:00 3.1 0.4 82   29 11 19.3 98.18     LegendNANA
22:00 2.7 -0.1 82   29 13 24.1 98.22     Cloudy
23:00 1.8 -1.0 82   28 14 24.1 98.24     LegendNANA

Notes on Data Quality.

Legend

  • E = Estimated
  • M = Missing
  • NA = Not Available*
  • [empty] = Indicates an unobserved value
Date modified: